Back to catalog

SL-8 DEB

AliveVLEO
NORAD 8756·DEBRIS·🇷🇺 Russia

Launched Sep 11, 1974 from Plesetsk Cosmodrome

Loading…

Next Passes (next 24 hours)

TLE

FreshSource: Space-Track

Epoch: Sep 14, 2026, 11:19 UTC

1 08756U 74071C   26257.47197446  .00018281  00000-0  76697-3 0  9997
2 08756  74.0321  29.1394 0004471  65.2088 294.9576 15.23440323904358

Track SL-8 DEB in real time with AllMySat

Download on the App Store